Regional Weather Roundup
Issued by NWS Grand Forks, ND

Home | Current Version | Previous Version | Graphics & Text | Print | Product List | Glossary On
Versions: 1 2 3 4 5 6 7 8 9 10 11 12 13 14 15 16 17 18 19 20 21 22 23 24 25 26 27 28 29 30 31 32 33 34 35 36 37 38 39 40 41 42 43 44 45 46 47 48 49 50
000
ASUS43 KFGF 011331
RWRFGF
PRAIRIE TO PINES  WEATHER ROUNDUP
NATIONAL WEATHER SERVICE EASTERN NORTH DAKOTA/GRAND FORKS ND
800 AM CDT SAT AUG 01 2015

 **SATELLITE DATA USED TO AUGMENT SKY COVER AT AUTOMATED STATIONS**
 *****  WEATHER ACROSS EASTERN NORTH DAKOTA  *****

CITY           SKY/WX    TMP DP  RH WIND       PRES   REMARKS
GRAND FORKS    SUNNY     63  55  75 CALM      29.93F
GRAND FRKS AFB SUNNY     65  57  74 W3        29.94F
GRAND FRKS NWS   N/A     59 N/A N/A W2          N/A
DEVILS LAKE    PTSUNNY   66  57  72 CALM      29.94F
FARGO          MOSUNNY   64  57  78 S5        29.96S
WAHPETON ARPT  SUNNY     64  57  77 CALM      29.97F
$$

 ***** WEATHER ACROSS CENTRAL AND WESTERN NORTH DAKOTA  *****

CITY           SKY/WX    TMP DP  RH WIND       PRES   REMARKS
BISMARCK       MOSUNNY   63  57  81 E8        29.91F
MINOT          MOSUNNY   60  54  80 S5        29.93F
JAMESTOWN      MOSUNNY   64  60  87 CALM      29.96F
MINOT AFB      SUNNY     62  56  83 S5        29.92F
GARRISON         N/A     63  58  83 E6        29.92F
WILLISTON      SUNNY     67  54  63 CALM      29.94S
DICKINSON      SUNNY     57  50  77 W8        29.92S
HETTINGER      SUNNY     66  53  63 W3        29.96S
$$

 *****  OTHER AIRPORT OBSERVATIONS IN OUR AREA  *****

CITY           SKY/WX    TMP DP  RH WIND       PRES   REMARKS
WALHALLA       FAIR      66  55  68 MISG      29.92F
GRAFTON AIRPOR FAIR      63  55  77 SW6       29.93F
VALLEY CITY AR FAIR      63  63 100 CALM      29.97F
CANDO          FAIR      61  57  88 SW3       29.95F
CAVALIER APRT  FAIR      66  55  68 W3        29.92S
GWINNER        FAIR      68  63  83 CALM      29.97F
ROLLA          FAIR      63  57  82 SW5       29.96S
 ***** THE ABOVE OBSERVATIONS ARE NON NWS ARE NOT QUALITY
       CONTROLLED AND MAY MIS-REPORT RAIN FOR SNOW...
$$

  *****  WEATHER ACROSS NORTHERN MINNESOTA  *****

CITY           SKY/WX    TMP DP  RH WIND       PRES   REMARKS
FLAG ISLAND    SUNNY     66  54  63 W10       29.88S
WARROAD        SUNNY     61  55  82 SW8       29.92S
ROSEAU         SUNNY     63  57  82 W3        29.92S
HALLOCK        SUNNY     61  54  77 CALM      29.91F
THF RVR FALLS  SUNNY     61  54  77 CALM      29.95S
BAUDETTE       SUNNY     62  53  72 W5        29.91S
WASKISH        SUNNY     66  59  77 SW7       29.94R
CROOKSTON      SUNNY     61  55  82 CALM      29.95F
STEPHEN NDAWN    N/A     63  55  77 W3          N/A
GREENBUSH NDAW   N/A     61  55  82 W6          N/A
$$
  *****  WEATHER ACROSS CENTRAL AND WEST MINNESOTA  *****

CITY           SKY/WX    TMP DP  RH WIND       PRES   REMARKS
FOSSTON        SUNNY     61  54  77 CALM      29.97S
BEMIDJI        SUNNY     62  53  73 W6        29.96S
PARK RAPIDS    SUNNY     61  55  81 W3        29.97F
ELBOW LAKE     FAIR      67  60  80 CALM      29.98S
WADENA         MOSUNNY   64  59  82 W3        29.97S
DETROIT LAKES  MOSUNNY   64  55  72 CALM      29.99S
MOORHEAD       MOSUNNY   61  59  94 CALM      29.97F
FERGUS FALLS   SUNNY     64  57  77 CALM      29.97F
MORRIS MN      SUNNY     68  63  83 CALM      29.97S
STAPLES        MOSUNNY   63  57  82 CALM      29.98R
$$
  *****  WEATHER ELSEWHERE ACROSS MINNESOTA  *****

CITY           SKY/WX    TMP DP  RH WIND       PRES   REMARKS
DULUTH         SUNNY     65  53  65 W6        29.94S
INTRNTL FALLS  SUNNY     61  54  77 W5        29.90S
ELY            SUNNY     61  54  77 W6        29.91F
CLOQUET        SUNNY     66  52  59 W8        29.95S
WHEATON        SUNNY     68  61  77 CALM      29.99S
BRAINERD       SUNNY     62  58  86 CALM      29.97F
HIBBING        SUNNY     63  54  72 W5        29.93F
ALEXANDRIA     MOSUNNY   66  64  93 CALM      30.00S
SAINT CLOUD    MOSUNNY   66  60  81 NW3       29.98R
MINNEAPOLIS    MOSUNNY   72  60  66 CALM      29.97R
$$

  *****  WEATHER ACROSS SOUTH DAKOTA  *****

CITY           SKY/WX    TMP DP  RH WIND       PRES   REMARKS
SIOUX FALLS    MOSUNNY   71  67  87 SW3       30.02S
BROOKINGS      SUNNY     66  61  82 SE5       30.03F
WATERTOWN      SUNNY     65  60  84 S5        30.00S
HURON          SUNNY     64  63  96 SE5       29.97S
SISSETON         N/A     65  59  81 CALM      29.97S
ABERDEEN       SUNNY     63  58  83 NE5       29.96S
MITCHELL       MOSUNNY   66  65  96 SE6       29.99F
PIERRE         MOSUNNY   68  61  78 S5        29.93F
MOBRIDGE       SUNNY     66  59  78 E12       29.91F
RAPID CITY     MOSUNNY   64  59  83 CALM      30.01R
$$

  *****  SOME WEATHER IN NEARBY STATES *****

CITY           SKY/WX    TMP DP  RH WIND       PRES   REMARKS
GLASGOW MT     SUNNY     60  50  69 SE5       29.95R
GREAT FALLS MT CLEAR     59  37  44 N5        30.04S
CHEYENNE WY    SUNNY     59  51  75 W5        30.23S
SCOTTSBLUFF NE SUNNY     67  59  75 NE3       30.09S
OMAHA NE       CLOUDY    68  67  96 NW3       30.05R
DES MOINES IA  PTSUNNY   73  66  78 SW5       30.04R
DAVENPORT IA   SUNNY     68  63  84 CALM      30.03S
CHICAGO IL     MOSUNNY   70  56  61 W7        29.99S
EAU CLAIRE WI  CLOUDY    65  58  78 CALM      29.96S
LA CROSSE WI   PTSUNNY   69  60  73 SE5       29.97S
$$

  *****  SOME NATIONAL WEATHER *****

CITY           SKY/WX    TMP DP  RH WIND       PRES   REMARKS
LA GUARDIA NY  MOSUNNY   82  60  47 SW8       29.79S
RALEIGH NC     MOSUNNY   77  64  64 CALM      29.96S
ATLANTA GA     PTSUNNY   77  63  61 NE7       29.99R
NEW ORLEANS LA MOSUNNY   82  65  56 NE15      29.91R
OKLAHOMA CITY  PTSUNNY   76  73  91 NE5       30.09R
ALBUQUERQUE NM MOCLDY    68  59  73 NW3       30.29S
SALT LAKE CITY MOCLDY    67  36  31 E5        30.13R
LOS ANGELES CA CLOUDY    67  64  90 VRB3      29.97R
BOISE ID       CLEAR     69  37  30 E6        30.02R
SEATTLE WA     PTCLDY    60  47  61 CALM      30.02R
$$

*** WEATHER ACROSS MANITOBA...SASKATCHEWAN AND ONTARIO ***
                ***ONTARIO***

CITY           SKY/WX    TMP DP  RH WIND       PRES   REMARKS
GERALDTON      PTSUNNY   61  57  88 W6        29.76R
THUNDER BAY    PTSUNNY   64  57  77 W10       29.83S
SIOUX LOOKOUT  PTSUNNY   63  57  82 NW8       29.82F
TORONTO        SUNNY     68  57  68 NW9       29.85S
BIG TROUT LK   MOSUNNY   61  55  82 W13G18    29.58S
PICKLE LAKE    MOSUNNY   59  54  82 W12G18    29.72F
DRYDEN         SUNNY     59  57  94 W10       29.85S
KENORA         MOSUNNY   64  55  72 W8        29.88F
$$
                *** MANITOBA***

CITY           SKY/WX    TMP DP  RH WIND       PRES   REMARKS
BRANDON        MOSUNNY   55  55 100 W5        29.92F
DAUPHIN        PTSUNNY   59  54  82 W9        29.87F
ISLAND LAKE    PTSUNNY   61  55  82 NW12G20   29.69S
PILOT MOUND      N/A     55  52  88 S1          N/A
THE PAS        PTSUNNY   61  55  82 W8        29.82R
THOMPSON       MOSUNNY   55  50  82 W8        29.70F
WINNIPEG       MOSUNNY   63  54  72 W9        29.88F
LYNN LAKE      SUNNY     55  50  82 NW12      29.78F
CHURCHILL      CLOUDY    48  46  93 N22G29    29.45F
$$
                ***SASKATCHEWAN***

CITY           SKY/WX    TMP DP  RH WIND       PRES   REMARKS
ESTEVAN        MOSUNNY   59  52  77 S6        29.93F
KINDERSLEY     PTSUNNY   59  54  82 NE8       29.89F
LLOYDMINSTER   LGT RAIN  61  54  77 NW12      29.94R
PRINCE ALBERT  CLOUDY    55  55 100 CALM      29.88S
REGINA         PTSUNNY   59  52  77 SE8       29.91S
YORKTON        SUNNY     59  54  82 VRB2      29.89F
N. BATTLEFORD  PTSUNNY   59  57  94 CALM      29.91S
LA RONGE       NOT AVBL
SASKATOON      PTSUNNY   59  57  94 S6        29.89F
SWIFT CURRENT  PTSUNNY   61  52  72 S12       29.88F
$$
NOTE: THESE ARE AUTOMATED STATIONS WITH LIMITED QUALITY CONTROL
      "FAIR" INDICATES FEW OR NO CLOUDS BELOW 12,000 FEET WITH NO
      SIGNIFICANT WEATHER AND/OR OBSTRUCTIONS TO VISIBILITY.
      SKY/WX - SKY CONDITION AND SIGNIFICANT WEATHER.
      TMP - AIR TEMPERATURE.    DP   - DEWPOINT TEMPERATURE.
      RH  - RELATIVE HUMIDITY.  PRES - PRESSURE.
      HX  - HEAT INDEX.         WCI  - WIND CHILL INDEX.
$


USA.gov is the U.S. government's official web portal to all federal, state and local government web resources and services.